Location: La Sioule Rivi�re
(46.3664°N, 3.3197°E)
Time: 12:29:29
(UTC+00:00)

Helios 1A Rocket - Pass Details

Date: 29 October 2020
Orbit: 562 x 587 km, 98.3° (Epoch: 23 November)

Event Time Altitude Azimuth Distance (km) Brightness Sun altitude
Rises 17:13:31 0° 134° (SE) 2,795 6.1 -7.1°
Reaches altitude 10° 17:15:56 10° 121° (ESE) 1,897 5.1 -7.5°
Maximum altitude 17:19:19 25° 66° (ENE) 1,178 3.9 -8.0°
Drops below altitude 10° 17:22:42 10° 10° (N) 1,897 5.4 -8.6°
Sets 17:25:07 0° 358° (N) 2,796 6.3 -9.0°
